Big Rapids, MI

10:32 PM EST on February 21, 2018 (GMT -0500)
Roben-Hood

Weather History for KRQB - September, 2014

Change the Weather History Date:

Wednesday, September 10, 2014

  Actual Average Record
Temperature  
Mean Temperature 62 °F -  
Max Temperature 73 °F 73 °F 90 °F (1978)
Min Temperature 52 °F 48 °F 35 °F (1998)
Degree Days  
Heating Degree Days 2    
Growing Degree Days 12 (Base 50)    
Moisture  
Dew Point 63 °F    
Average Humidity 96    
Maximum Humidity 100    
Minimum Humidity 88    
Precipitation  
Precipitation 0.58 in - - ()
Sea Level Pressure  
Sea Level Pressure 29.68 in    
Wind  
Wind Speed 6 mph (South)    
Max Wind Speed 16 mph    
Max Gust Speed 32 mph    
Visibility 8 miles    
Events Rain    
Averages and records for this station are not official NWS values.
T = Trace of Precipitation, MM = Missing Value Source: NWS Daily Summary

Daily Weather History Graph

Daily Weather History Graph

Search for Another Location

Airport or City:

Trip Planner

Search our weather history database for the weather conditions in past years. The results will help you decide how hot, cold, wet, or windy it might be!

Date:

Astronomy

Sep. 10, 2014 Rise Set
Actual Time 7:15 AM EDT 8:01 PM EDT
Civil Twilight 6:46 AM EDT 8:30 PM EDT
Nautical Twilight 6:12 AM EDT 9:04 PM EDT
Astronomical Twilight 5:36 AM EDT 9:40 PM EDT
Moon 8:54 PM EDT (9/10) 9:06 AM EDT (9/10)
Length of Visible Light 13h 43m
Length of Day
12h 45m
Waning Gibbous, 96% of the Moon is Illuminated
Sep 10
Waning Gibbous
Sep 15
Last Quarter
Sep 24
New
Oct 1
First Quarter
Oct 8
Full

Hourly Weather History & Observations

Time (EDT) Temp. Dew Point Humidity Pressure Visibility Wind Dir Wind Speed Gust Speed Precip Events Conditions
12:14 AM 60.8 °F 58.6 °F 93% 29.94 in 10.0 mi Calm Calm - N/A   Clear
12:35 AM 60.3 °F 58.6 °F 94% 29.94 in 10.0 mi ESE 5.8 mph - N/A   Clear
12:55 AM 60.1 °F 59.0 °F 96% 29.94 in 10.0 mi Calm Calm - N/A   Clear
1:14 AM 61.2 °F 59.0 °F 93% 29.93 in 10.0 mi Calm Calm - N/A   Clear
1:35 AM 62.1 °F 59.4 °F 91% 29.92 in 10.0 mi Calm Calm - N/A   Clear
1:54 AM 61.3 °F 59.0 °F 92% 29.92 in 10.0 mi Calm Calm - N/A   Clear
2:14 AM 60.8 °F 59.4 °F 95% 29.90 in 10.0 mi Calm Calm - N/A   Clear
2:35 AM 60.8 °F 59.9 °F 97% 29.90 in 10.0 mi Calm Calm - N/A   Clear
2:54 AM 61.9 °F 59.9 °F 93% 29.89 in 10.0 mi Calm Calm - N/A   Scattered Clouds
3:15 AM 62.6 °F 60.4 °F 93% 29.88 in 10.0 mi South 4.6 mph - N/A   Scattered Clouds
3:35 AM 64.4 °F 60.8 °F 88% 29.88 in 10.0 mi SE 6.9 mph - N/A   Scattered Clouds
3:54 AM 63.9 °F 60.8 °F 90% 29.87 in 10.0 mi SE 5.8 mph - N/A   Scattered Clouds
4:15 AM 63.9 °F 60.6 °F 89% 29.86 in 10.0 mi SSE 3.5 mph - N/A   Clear
4:35 AM 63.0 °F 60.4 °F 91% 29.85 in 10.0 mi SSE 3.5 mph - N/A   Scattered Clouds
4:54 AM 62.6 °F 60.4 °F 93% 29.84 in 10.0 mi SSE 4.6 mph - N/A   Scattered Clouds
5:15 AM 62.6 °F 60.4 °F 93% 29.83 in 10.0 mi SSE 4.6 mph - N/A   Scattered Clouds
5:35 AM 63.9 °F 60.8 °F 90% 29.83 in 10.0 mi SE 5.8 mph - N/A   Overcast
5:54 AM 64.6 °F 60.8 °F 88% 29.83 in 10.0 mi ESE 6.9 mph - N/A   Overcast
6:15 AM 64.4 °F 61.0 °F 89% 29.83 in 10.0 mi ESE 8.1 mph - N/A   Overcast
6:35 AM 63.1 °F 61.7 °F 95% 29.82 in 7.0 mi Calm Calm - 0.07 in Rain Rain
6:54 AM 62.6 °F 61.9 °F 97% 29.81 in 7.0 mi SE 4.6 mph - 0.09 in Rain Light Rain
7:15 AM 62.6 °F 62.1 °F 98% 29.81 in 7.0 mi SE 3.5 mph - 0.02 in Rain Light Rain
7:35 AM 62.2 °F 62.1 °F 99% 29.81 in 7.0 mi SE 5.8 mph - 0.02 in Rain Light Rain
7:54 AM 62.4 °F 62.2 °F 99% 29.80 in 7.0 mi SE 4.6 mph - 0.02 in   Light Drizzle
8:15 AM 62.6 °F 62.4 °F 99% 29.80 in 5.0 mi SE 6.9 mph - 0.02 in Rain Rain
8:35 AM 62.4 °F 62.2 °F 99% 29.79 in 7.0 mi SSE 4.6 mph - 0.03 in Rain Light Rain
8:54 AM 62.6 °F 62.6 °F 100% 29.78 in 5.0 mi SE 4.6 mph - 0.03 in Rain Light Rain
9:15 AM 62.6 °F 62.6 °F 100% 29.77 in 7.0 mi SSE 8.1 mph - N/A   Drizzle
9:35 AM 63.0 °F 62.6 °F 99% 29.76 in 5.0 mi SSE 9.2 mph - 0.02 in Rain Light Rain
9:54 AM 63.0 °F 62.8 °F 99% 29.74 in 7.0 mi SSE 5.8 mph - 0.04 in Rain Light Rain
10:15 AM 63.7 °F 63.5 °F 99% 29.73 in 7.0 mi SE 6.9 mph - N/A   Overcast
10:35 AM 64.6 °F 64.4 °F 99% 29.71 in 7.0 mi SSE 10.4 mph 17.3 mph N/A Rain Light Rain
10:54 AM 65.3 °F 64.4 °F 97% 29.70 in 10.0 mi SSE 9.2 mph 18.4 mph N/A   Overcast
11:35 AM 65.3 °F 64.4 °F 97% 29.67 in 7.0 mi SSE 12.7 mph 20.7 mph 0.01 in   Overcast
11:54 AM 65.3 °F 64.4 °F 97% 29.65 in 5.0 mi SSE 10.4 mph 19.6 mph 0.02 in Rain Light Rain
12:15 PM 65.3 °F 64.9 °F 99% 29.63 in 5.0 mi SSE 11.5 mph 16.1 mph 0.02 in Rain Rain
12:34 PM 65.8 °F 65.5 °F 99% 29.60 in 7.0 mi SSE 12.7 mph 17.3 mph 0.03 in Rain Light Rain
12:54 PM 65.7 °F 65.3 °F 99% 29.58 in 5.0 mi SSE 12.7 mph 19.6 mph 0.06 in Rain Light Rain
1:15 PM 65.7 °F 65.7 °F 100% 29.57 in 4.0 mi SSE 10.4 mph 18.4 mph 0.07 in Rain Rain
1:34 PM 66.2 °F 66.2 °F 100% 29.55 in 7.0 mi SSE 11.5 mph 19.6 mph 0.10 in Rain Light Rain
1:54 PM 66.6 °F 66.6 °F 100% 29.54 in 2.5 mi SSE 10.4 mph 25.3 mph 0.21 in Rain Heavy Rain
2:15 PM 67.1 °F 67.1 °F 100% 29.52 in 5.0 mi SSE 11.5 mph 18.4 mph 0.04 in Rain Light Rain
2:34 PM 67.3 °F 67.3 °F 100% 29.50 in 5.0 mi South 10.4 mph - 0.06 in Rain Rain
2:54 PM 67.5 °F 67.5 °F 100% 29.49 in 5.0 mi SSE 8.1 mph - 0.09 in Rain Heavy Rain
3:15 PM 68.0 °F 68.0 °F 100% 29.49 in 5.0 mi SSE 8.1 mph - N/A   Drizzle
3:34 PM 68.5 °F 68.5 °F 100% 29.48 in 10.0 mi SSW 8.1 mph - 0.01 in   Overcast
3:55 PM 69.8 °F 69.8 °F 100% 29.47 in 10.0 mi WSW 15.0 mph 20.7 mph 0.01 in   Overcast
4:15 PM 70.7 °F 70.3 °F 99% 29.48 in 10.0 mi SW 10.4 mph 16.1 mph N/A   Overcast
4:34 PM 71.6 °F 70.7 °F 97% 29.47 in 10.0 mi SW 12.7 mph 17.3 mph N/A   Overcast
4:55 PM 71.8 °F 70.7 °F 96% 29.48 in 10.0 mi SW 11.5 mph 19.6 mph N/A   Overcast
5:14 PM 71.8 °F 70.7 °F 96% 29.48 in 10.0 mi SW 15.0 mph 20.7 mph N/A   Overcast
5:35 PM 72.3 °F 70.9 °F 95% 29.48 in 10.0 mi SW 12.7 mph 19.6 mph N/A   Overcast
5:55 PM 72.7 °F 71.2 °F 95% 29.49 in 10.0 mi SW 11.5 mph 16.1 mph N/A   Overcast
6:14 PM 72.9 °F 71.1 °F 94% 29.49 in 10.0 mi WSW 15.0 mph 19.6 mph N/A   Overcast
6:35 PM 73.2 °F 71.1 °F 93% 29.49 in 10.0 mi SW 12.7 mph - N/A   Overcast
6:55 PM 73.0 °F 70.7 °F 92% 29.49 in 10.0 mi WSW 11.5 mph 19.6 mph N/A   Overcast
7:14 PM 72.9 °F 70.2 °F 91% 29.49 in 10.0 mi WSW 11.5 mph 24.2 mph N/A   Overcast
7:35 PM 72.5 °F 69.8 °F 91% 29.49 in 10.0 mi West 11.5 mph 18.4 mph N/A   Overcast
7:55 PM 71.8 °F 69.4 °F 92% 29.49 in 10.0 mi WSW 12.7 mph - N/A   Overcast
8:14 PM 70.7 °F 69.1 °F 95% 29.50 in 7.0 mi West 11.5 mph 20.7 mph N/A Rain Light Rain
8:35 PM 69.3 °F 67.8 °F 95% 29.52 in 10.0 mi WNW 16.1 mph 26.5 mph N/A   Overcast
8:55 PM 63.7 °F 63.0 °F 97% 29.55 in 7.0 mi WNW 16.1 mph 32.2 mph N/A   Overcast
9:14 PM 61.0 °F 60.3 °F 97% 29.57 in 5.0 mi WNW 11.5 mph 23.0 mph 0.01 in   Drizzle
9:35 PM 58.8 °F 58.1 °F 97% 29.60 in 4.0 mi WNW 12.7 mph 23.0 mph 0.01 in   Light Drizzle
9:55 PM 57.4 °F 56.8 °F 98% 29.61 in 4.0 mi NW 11.5 mph 24.2 mph 0.01 in   Light Drizzle
10:14 PM 56.3 °F 55.8 °F 98% 29.62 in 10.0 mi NW 13.8 mph 20.7 mph N/A   Overcast
10:35 PM 54.9 °F 54.3 °F 98% 29.63 in 7.0 mi WNW 12.7 mph 19.6 mph N/A   Overcast
10:55 PM 54.0 °F 53.1 °F 97% 29.65 in 7.0 mi WNW 13.8 mph 24.2 mph N/A   Overcast
11:14 PM 53.2 °F 52.3 °F 97% 29.66 in 7.0 mi NW 16.1 mph 24.2 mph N/A   Overcast
11:35 PM 52.7 °F 51.6 °F 96% 29.68 in 7.0 mi NW 15.0 mph 26.5 mph N/A   Overcast
11:55 PM 52.2 °F 51.1 °F 96% 29.70 in 7.0 mi WNW 12.7 mph 26.5 mph N/A   Overcast